Powrót do katalogu

STARLINK-4283

AktywnyŁącznośćVLEO
NORAD 53016·PAYLOAD·🇺🇸 United States

Wystrzelony Jul 7, 2022 z Cape Canaveral Space Force Station

Loading…

Następne Przeloty (najbliższe 24 godziny)

TLE

ŚwieżeSource: CelesTrak SupGP

Epoka: Sep 14, 2026, 20:54 UTC

1 53016C 22076AG  26257.87131944 -.00012752  00000+0 -41020-3 0  2576
2 53016  53.1568 303.0278 0000924  64.8039 246.2712 15.31697803    11

Śledź STARLINK-4283 w czasie rzeczywistym z AllMySat

Download on the App Store